EHI
47 51 56 60 64 61 54 48 43 36 28 25 23 17 10 7 7 8 7 4 3 5 4 3 2 1 0 0 0 0 0 0 0 0 0 0 0 0 0 0 0 1 1
51 55 60 67 71 70 62 55 50 42 34 28 22 14 8 6 6 7 7 7 6 6 5 3 2 2 1 0 0 0 0 0 0 0 0 0 0 0 0 0 0 0 1
58 61 67 73 77 76 71 66 60 53 43 35 27 18 11 8 7 8 10 10 10 10 7 3 2 2 2 1 0 0 0 1 0 0 0 0 0 0 0 0 0 0 0
63 65 71 77 79 77 76 74 70 62 52 43 35 27 18 11 9 10 13 13 12 11 8 5 4 3 3 2 1 1 1 1 0 0 0 0 0 0 0 0 0 0 0
66 67 72 77 78 76 77 78 75 68 58 49 40 31 22 13 9 10 15 16 13 11 9 7 5 4 4 3 3 3 2 1 0 0 0 0 0 0 0 0 0 0 0
67 67 70 75 77 76 77 78 75 68 60 53 44 34 24 15 12 13 16 17 15 11 8 6 5 5 6 6 6 6 4 2 0 0 0 0 0 0 0 0 0 0 0
65 65 67 72 76 77 78 78 75 68 60 54 47 38 28 21 17 17 18 18 16 12 7 5 5 6 8 9 9 8 6 3 0 0 0 0 0 0 0 0 0 0 0
65 66 68 71 73 74 74 75 72 66 58 53 47 40 33 26 22 20 19 19 17 12 7 6 8 9 11 12 12 11 9 5 3 2 1 0 0 0 0 0 0 0 0
64 66 67 68 68 66 64 66 68 64 59 54 48 42 37 32 26 22 19 17 15 12 9 9 12 13 13 13 13 12 11 8 6 4 2 1 1 1 1 1 0 0 0
58 60 62 62 61 57 55 59 63 63 60 57 52 46 40 33 26 22 19 16 13 13 13 14 16 17 17 14 12 10 9 7 6 4 3 3 2 2 2 2 1 1 1
52 54 56 56 55 52 52 56 60 62 61 59 55 49 41 32 25 21 19 16 14 14 16 18 20 22 20 16 12 10 8 5 4 3 3 3 3 3 3 3 3 4 3
46 49 51 51 51 51 53 56 58 60 61 59 55 49 41 33 26 21 17 14 13 14 17 22 24 24 21 17 14 12 9 6 5 4 3 3 3 3 3 3 4 4 3
40 43 46 46 47 49 52 55 56 57 59 56 52 48 41 34 28 23 17 14 13 14 18 23 25 24 21 18 16 14 12 10 8 6 4 4 4 4 4 3 2 2 1
37 38 40 42 44 47 51 52 52 52 54 54 52 47 40 37 34 28 22 19 17 17 19 23 25 25 22 20 18 16 15 14 12 9 8 7 6 6 4 2 1 0 0
38 37 37 39 44 49 52 51 49 46 47 51 50 44 36 35 36 33 30 27 25 21 21 23 25 24 23 21 18 16 16 14 12 11 10 8 6 4 3 2 0 0 0
38 37 35 37 42 49 51 49 45 42 42 46 46 40 34 33 35 35 33 30 28 26 23 22 21 20 21 19 15 13 12 11 9 8 8 6 4 2 1 1 1 0 0
34 34 33 34 37 41 43 42 38 36 36 37 38 36 34 33 34 33 30 27 27 27 25 20 17 16 15 13 9 7 7 6 6 6 5 4 2 1 1 1 1 0 0
28 29 29 29 30 32 34 34 32 31 30 28 30 31 31 32 32 30 27 26 26 25 22 18 15 13 11 8 4 2 3 4 4 4 4 3 1 0 0 1 1 0 0
27 26 25 25 24 26 29 32 32 32 31 29 27 27 27 29 30 29 28 27 25 22 17 14 12 10 8 5 2 1 2 3 2 3 3 2 1 0 0 0 0 0 0
29 27 25 23 22 24 27 31 33 34 33 31 29 27 27 28 29 28 27 25 22 18 14 11 9 8 6 3 1 1 2 2 2 2 1 1 0 0 0 0 0 0 0
31 29 26 23 20 21 24 27 29 29 27 26 27 27 27 27 26 26 25 22 18 15 12 10 7 6 4 2 0 1 2 2 3 3 1 0 0 0 0 0 0 0 0
30 27 24 20 17 17 20 22 22 19 16 17 20 22 23 24 23 23 23 20 16 14 12 9 7 5 2 0 0 0 1 2 3 3 1 0 0 0 0 0 0 0 0
25 23 19 16 14 14 15 17 15 11 9 11 13 15 16 19 21 21 20 18 16 14 13 10 7 3 1 0 0 0 0 0 1 2 1 0 0 0 0 0 0 0 0
21 19 16 15 13 12 13 14 13 10 10 10 11 11 12 14 16 16 15 15 14 12 10 9 6 3 0 0 0 0 0 0 0 0 0 0 0 0 0 0 0 0 0
18 16 15 15 14 12 12 14 14 12 11 11 10 11 12 12 12 10 8 9 9 7 5 5 5 3 1 0 0 0 0 0 0 0 0 0 0 0 0 0 0 0 0
14 14 15 16 14 12 12 14 15 13 11 10 10 11 12 12 9 6 4 4 4 3 2 2 3 3 1 0 0 0 0 0 0 0 0 0 0 0 0 0 0 0 0
Wind_Speed
13 13 13 13 12 10 11 10 9 8 6 4 3 3 3 2 3 3 4 5 4 4 4 2 2 2 2 2 2 2 1 0 1 2 2 2 1 1 2 3 3 5 5
10 12 12 12 13 12 11 10 10 9 8 5 4 3 3 2 3 3 4 5 5 5 4 4 3 3 2 2 2 2 1 0 1 2 1 2 4 3 1 1 3 4 4
17 15 14 13 13 12 12 11 10 9 8 6 3 2 2 1 1 2 3 4 5 5 4 5 4 4 3 3 3 3 3 2 1 2 3 2 2 2 3 2 2 2 3
14 14 14 14 14 14 12 11 10 9 8 8 6 5 4 4 4 3 3 3 4 5 5 5 5 4 3 3 4 3 3 3 1 1 1 2 3 2 2 3 2 2 3
15 15 15 15 14 13 11 10 10 9 8 8 8 6 4 4 2 2 4 4 4 4 5 5 4 4 4 4 4 3 3 3 3 2 1 1 1 2 2 2 2 2 2
13 12 12 11 9 10 10 10 10 9 9 8 8 7 6 5 4 4 4 4 3 3 4 5 5 4 4 4 4 4 4 3 3 3 2 2 2 2 2 2 2 2 3
12 12 11 11 11 12 11 11 11 10 9 9 8 8 7 7 7 6 5 4 3 3 4 4 4 4 5 5 4 4 4 4 4 4 3 3 3 3 3 2 2 2 2
10 11 12 12 12 12 12 11 12 10 10 10 9 7 7 5 5 5 5 5 4 4 5 5 4 5 5 5 4 3 4 3 4 4 4 2 3 3 3 3 2 1 2
10 9 10 10 10 10 11 12 12 10 10 10 8 7 7 6 5 5 4 4 4 4 4 5 4 4 4 4 3 3 4 4 4 4 4 3 2 2 2 3 3 3 2
8 7 8 8 7 8 8 9 10 10 9 9 8 7 6 6 5 5 5 4 4 4 4 4 4 4 4 4 3 3 3 3 3 3 3 3 2 2 1 2 2 3 3
9 7 6 5 4 5 6 7 8 8 8 8 7 7 6 5 5 5 5 4 4 4 4 4 4 4 4 3 3 3 3 3 3 3 3 3 2 1 1 1 1 2 2
7 7 6 5 4 4 6 7 7 7 8 8 7 6 5 5 5 5 4 4 4 3 4 3 3 3 3 3 3 4 3 3 3 3 2 2 2 1 1 1 1 2 2
7 7 6 4 4 4 5 6 6 7 7 7 6 6 5 5 5 5 4 3 3 3 3 3 3 3 3 3 3 3 3 3 3 2 2 2 1 1 1 1 1 1 1
7 7 6 4 3 3 4 5 6 6 7 6 6 6 5 5 5 5 4 4 3 3 3 3 3 3 3 3 3 2 2 1 1 1 2 2 1 1 1 1 1 0 1
6 6 5 4 3 3 3 4 5 5 6 7 6 6 5 5 4 4 4 3 3 3 3 2 2 2 2 2 2 2 2 2 2 1 1 2 3 2 1 1 1 1 1
6 5 5 5 4 4 3 4 4 4 5 6 5 4 4 4 4 4 3 3 3 2 2 2 2 2 1 1 3 3 2 2 2 2 2 2 3 4 6 6 6 4 2
5 6 5 4 3 3 4 4 3 3 4 4 4 3 4 4 4 4 4 3 3 3 3 2 3 2 1 3 4 4 3 3 3 2 2 3 3 4 3 5 6 6 6
4 4 4 3 3 3 3 3 3 4 4 4 4 4 4 4 4 4 4 3 3 3 3 2 2 3 2 4 5 5 4 4 3 3 3 3 2 3 3 4 4 4 4
5 4 4 5 4 4 3 4 3 3 3 3 3 3 4 4 4 4 3 3 3 3 3 3 3 3 3 4 5 6 4 4 4 3 3 3 3 3 4 4 4 3 3
4 5 5 6 6 4 4 5 4 3 3 2 2 3 3 4 4 4 4 3 4 4 4 4 3 4 3 4 6 6 4 4 3 3 3 4 4 4 4 4 4 3 1
5 6 6 6 4 3 5 5 4 3 2 2 3 3 3 4 4 4 4 5 5 5 5 5 4 3 4 4 5 5 4 3 3 3 2 2 5 5 5 4 3 3 2
6 6 6 5 3 3 5 5 3 2 2 3 3 3 3 3 4 5 5 5 6 6 5 5 4 3 3 4 5 5 4 4 4 3 2 2 6 6 6 4 5 5 4
5 4 5 5 3 3 4 4 2 2 3 4 4 4 4 4 4 5 5 4 4 5 4 4 4 3 3 4 6 6 5 5 4 3 5 6 7 6 5 6 6 5 3
4 4 5 4 3 2 3 2 2 3 4 5 4 4 6 6 5 4 4 4 3 4 4 4 4 3 3 2 2 3 4 5 5 4 6 8 9 7 6 5 4 3 3
4 4 4 4 2 2 2 2 2 4 5 5 5 5 5 6 6 6 5 4 3 2 4 4 4 4 3 1 2 3 3 3 4 5 4 4 4 5 4 4 4 3 3
4 4 4 4 3 3 3 2 2 4 5 5 5 4 4 5 5 6 6 11 7 8 7 6 5 4 4 6 7 7 8 8 8 7 5 4 4 3 3 3 3 4 3
Wind_Direction
184 177 175 173 168 167 167 168 166 168 160 154 156 155 169 176 178 183 178 170 173 167 156 165 166 154 158 179 164 142 112 84 105 65 6 340 331 231 204 195 192 199 201
174 177 176 175 174 173 174 172 172 172 170 171 167 164 165 181 185 185 184 181 183 182 178 177 180 176 163 179 174 150 137 188 143 130 87 358 343 329 260 201 197 200 191
179 179 178 179 173 175 178 181 180 175 173 166 150 138 116 111 160 184 191 198 194 193 186 186 185 185 176 190 198 180 163 185 234 160 148 153 236 299 318 274 221 202 189
179 179 178 178 180 182 181 179 180 176 172 165 166 173 178 190 203 193 192 202 205 199 189 190 191 192 190 195 207 192 177 168 200 243 197 180 173 172 297 313 291 229 206
178 180 183 184 183 180 178 177 176 177 175 174 176 183 189 195 192 184 188 202 212 209 195 193 193 197 199 203 210 195 191 180 185 200 204 193 189 171 170 266 298 304 255
176 179 180 174 174 175 176 176 177 182 181 179 182 189 188 184 179 191 198 205 208 214 210 203 202 203 205 208 210 206 199 199 195 196 194 185 189 203 185 217 249 264 272
173 174 171 170 175 177 178 179 179 185 186 186 190 193 190 185 191 195 198 197 198 210 215 212 207 208 213 211 206 205 212 205 200 204 212 207 210 194 187 193 228 249 273
167 172 176 176 178 179 179 179 183 186 185 190 194 191 188 189 197 196 193 199 204 210 207 205 206 211 212 216 203 204 213 207 212 222 218 217 225 205 194 188 183 240 284
161 169 173 173 177 180 183 185 185 185 187 189 189 188 187 189 194 195 193 200 206 207 204 204 207 212 211 212 203 213 215 212 216 223 221 222 229 215 210 197 183 181 231
158 164 168 172 177 181 189 186 184 185 187 189 191 193 193 194 193 189 195 194 200 204 198 204 206 207 206 205 201 213 219 212 222 220 219 228 234 235 229 212 211 195 197
154 154 147 153 161 167 178 180 176 177 179 183 185 188 190 190 187 188 193 190 190 193 201 205 201 203 209 208 201 212 210 212 229 232 215 225 222 229 244 226 211 206 187
133 134 129 130 140 160 172 169 170 173 179 178 177 184 183 180 185 192 192 189 192 196 198 190 184 199 204 202 200 214 216 213 227 233 217 237 229 228 246 239 231 228 214
114 116 113 129 147 156 159 158 162 169 170 166 170 175 174 177 185 187 183 181 187 189 183 170 178 194 196 197 204 204 208 212 219 211 198 223 210 250 268 249 244 242 231
111 116 120 126 148 151 147 149 158 161 159 159 165 172 181 184 184 183 179 180 173 164 167 175 186 190 187 189 194 186 190 188 186 179 176 180 181 227 249 243 254 206 88
109 111 114 116 116 113 125 138 148 153 155 156 165 178 183 177 169 167 168 164 160 171 173 169 156 151 162 182 170 163 158 149 126 98 101 101 97 88 90 83 83 100 96
118 111 106 109 113 117 118 120 134 146 145 154 165 168 165 163 161 157 149 143 149 164 151 145 138 133 169 134 142 146 130 125 122 112 83 69 65 78 77 76 74 82 102
124 118 117 123 127 137 135 132 143 137 134 141 150 156 156 158 159 151 142 145 154 152 136 136 132 132 115 113 119 123 115 107 104 100 84 71 69 85 88 76 69 62 68
130 122 116 113 108 108 106 120 127 127 130 136 149 153 149 158 154 144 145 152 145 143 144 132 133 125 100 109 118 117 105 94 86 88 97 96 80 86 102 92 75 60 45
135 128 123 114 99 93 100 103 102 111 113 123 138 148 151 150 144 147 149 147 134 130 124 116 113 109 94 102 116 115 100 91 77 74 77 94 95 86 99 98 91 69 40
106 108 102 95 87 79 91 92 89 95 108 128 135 136 144 147 148 154 144 127 122 122 115 103 97 108 107 105 112 116 108 99 85 65 58 68 86 91 104 110 110 96 49
99 99 94 91 89 85 92 90 85 90 114 112 113 111 127 135 138 130 124 121 117 112 106 100 86 85 97 99 99 108 111 120 107 88 64 53 76 83 89 96 101 114 109
88 92 93 86 80 85 96 92 79 69 85 95 97 100 109 120 121 119 115 115 119 113 108 103 88 66 69 85 92 98 103 110 110 105 87 68 77 79 79 80 78 81 81
94 90 100 93 75 76 94 101 94 74 89 92 95 90 80 75 90 107 115 113 113 116 114 108 103 88 70 71 78 84 87 93 95 91 89 79 74 73 69 66 72 73 71
95 92 97 90 68 60 80 102 100 97 103 101 98 95 92 81 72 73 83 102 110 118 120 121 122 113 89 70 62 75 83 81 81 80 76 73 68 65 61 55 54 56 64
107 102 104 103 87 74 70 82 97 106 108 105 104 100 98 100 87 72 57 73 70 122 138 139 138 134 130 160 133 116 99 108 109 100 78 67 62 57 49 46 45 45 49
115 106 100 100 91 80 70 71 90 106 114 113 110 107 106 104 103 100 77 51 62 69 81 107 124 108 116 118 106 96 94 99 108 97 89 82 77 72 63 57 47 42 45